weather.gov     
National Weather Service

Terminal Aerodrome Forecast
NWS Homepage
This page is being discontinued on March 12, 2014.
The same data is available at this site. Please update your bookmarks.
Thank you, and we apologize for the inconvenience.
Please send an email to SR-SRH.Webmaster@noaa.gov with any concerns.


Current Version
Previous Version:    01  02  03  04  05  06  07  08  09  10  11  12  13  14  15  16  17  18  19  20  21  22  23  
[Printable]
082
FTUS45 KREV 240500
TAFTRK
TAF
KTRK 240529Z 2406/2506 24005KT P6SM SCT180
     FM241400 20006KT P6SM SCT180
     FM241700 21011G22KT P6SM SCT180
     FM242200 23016G26KT P6SM SCT180
     FM250400 20011KT P6SM SCT180
      AMD NOT SKED 2406/2412=


U.S. Dept. of Commerce
NOAA National Weather Service
1325 East West Highway
Silver Spring, MD 20910
E-mail: w-nws.webmaster@noaa.gov
Page last modified: May 16, 2007
NATIONAL WEATHER SERVICE: for Safety, for Work, for Fun - FOR LIFE